Location: Gairloch Mountain Observatory
(46.1383°N, 60.9640°W)
Time: 15:09:46
(UTC-03:00)

Daily predictions for brighter satellites

Satellite Brightness Start Highest point End
(mag) Time Altitude Azimuth Time Altitude Azimuth Time Altitude Azimuth
APEX 4.1 21:15:40 10° NW 21:19:36 61° WSW 21:24:40 10° SSE
USA 234 3.5 21:15:04 10° ESE 21:21:35 71° NNE 21:28:08 10° NW
Cosmos 2058 Rocket 3.8 21:17:20 10° NNW 21:21:37 54° W 21:25:51 10° S
Meteor 1-15 Rocket 4.4 21:16:38 10° NNW 21:22:15 82° W 21:27:53 10° S
Atlas Centaur 2 4.1 21:17:29 10° SSW 21:22:53 21° SSE 21:28:46 10° ESE
SL-16 R/B 2.6 21:18:27 10° SW 21:24:05 70° WNW 21:29:46 10° NNE
Cosmos 1464 Rocket 4.2 21:18:36 10° NNW 21:24:44 75° W 21:30:52 10° S
Cosmos 1666 3.0 21:21:08 10° NNW 21:25:03 74° W 21:28:56 10° S
ERS-1 Rocket 3.4 21:20:11 10° S 21:25:10 64° WSW 21:30:10 10° NNW
Cosmos 1602 Rocket 3.7 21:23:34 10° S 21:27:59 63° E 21:32:25 10° NNE
Abrixas rocket 4.2 21:27:27 10° W 21:30:02 20° SW 21:32:37 10° SSE
MetOp-B 4.4 21:26:23 10° SSE 21:31:36 56° ENE 21:36:52 10° N
Envisat 3.0 21:26:42 10° SSE 21:31:46 81° ENE 21:36:53 10° NNW
SL-8 R/B 4.1 21:30:50 10° W 21:35:39 68° N 21:40:30 10° ENE
Cosmos 1812 Rocket 3.6 21:31:43 10° N 21:36:07 67° E 21:40:29 10° SSE
deb Chang Zheng 4 3.9 21:32:36 10° N 21:37:01 73° WNW 21:41:22 10° SSW
ATLAS CENTAUR R/B 4.0 21:33:41 10° WSW 21:38:12 33° NW 21:42:45 10° NNE
ISS -2.3 21:40:59 10° SSW 21:43:43 25° SE 21:46:27 10° E
Cosmos 2034 Rocket 4.3 21:37:35 10° NNW 21:43:57 72° W 21:50:14 10° S
Cosmos 1634 Rocket 4.4 21:38:22 10° N 21:44:19 47° ENE 21:49:58 11° SSE
Cosmos 1939 Rocket 3.6 21:42:14 10° S 21:46:19 56° W 21:50:25 10° NNW
PSLV R/B 4.4 21:44:16 10° SW 21:47:18 27° SSE 21:50:06 12° ESE
COSMOS 2455 3.0 21:42:47 10° S 21:48:36 53° ESE 21:54:26 10° NE
GRACE-1 4.2 21:46:16 10° N 21:49:08 70° W 21:51:59 10° S
GRACE-2 4.2 21:46:42 10° N 21:49:35 70° W 21:52:25 10° S
SPOT 5 2.7 21:46:23 10° S 21:50:47 76° WSW 21:55:08 10° NNW
H-2A R/B 3.4 21:47:38 10° SSW 21:51:34 37° W 21:55:39 10° NNW
USA 81 4.4 21:47:07 10° N 21:52:18 52° E 21:57:00 12° SSE
Cosmos 1603 3.7 21:47:31 10° SSW 21:53:07 83° ESE 21:58:46 10° NNE
Lacrosse 5 rocket 3.3 21:50:33 10° W 21:54:08 32° NNW 21:57:54 10° NE
USA 245 4.3 21:50:52 10° SSE 21:56:41 68° ENE 22:01:40 10° N
Cosmos 1515 3.8 21:54:08 10° S 21:57:54 57° E 22:01:43 10° NNE
Meteor 2-12 Rocket 4.4 21:53:07 10° N 21:59:16 86° E 22:05:20 10° S
Cosmos 1626 Rocket 4.1 21:56:17 10° SSW 22:00:40 61° WNW 22:05:04 10° N
CZ-4 SHROUD 4.4 21:59:27 10° S 22:02:26 39° W 22:05:27 10° NNW
Lacrosse 5 4.1 21:58:48 10° WNW 22:03:03 26° N 22:07:18 10° NE
Cosmos 1992 Rocket 4.0 22:00:42 10° NNW 22:05:58 89° ENE 22:10:20 15° SSE
Terra 2.9 22:05:01 15° ESE 22:08:18 31° ENE 22:12:28 10° N
YAOGAN 6 2.6 22:05:15 14° SSE 22:08:22 89° WSW 22:12:09 10° NNW
Cosmos 1346 Rocket 3.2 22:13:20 18° SSE 22:15:51 43° E 22:19:37 10° NNE
Cosmos 1943 3.3 22:11:11 10° S 22:16:41 56° ESE 22:22:16 10° NE
Cosmos 2346 Rocket 4.5 22:12:22 10° S 22:18:32 71° E 22:24:39 10° NNE
Cosmos 1953 Rocket 3.8 22:15:28 16° SSE 22:18:46 52° E 22:23:06 10° NNE
Cosmos 1943 Rocket 3.0 22:14:07 10° NNW 22:19:18 39° NE 22:23:18 16° ESE
H-2A R/B 2.6 22:17:02 18° SE 22:20:22 43° ENE 22:25:10 10° N
Geosat 4.5 22:17:54 10° NE 22:22:38 40° ESE 22:26:26 15° S
UNK 4.5 22:17:42 10° NNE 22:23:05 74° WNW 22:28:43 10° SSW
Cosmos 1190 Rocket 4.1 22:23:15 10° S 22:28:29 63° ESE 22:33:45 10° NNE
SeaSat 1 3.6 22:24:32 11° S 22:28:50 36° WSW 22:33:23 10° NW
SPOT 1/Viking Rocket 3.8 22:24:42 14° S 22:29:07 66° WSW 22:34:16 10° NNW
Lacrosse 4 Rocket 1.8 22:26:48 20° S 22:29:11 40° ESE 22:33:02 10° NE
Cosmos 1842 4.3 22:28:39 23° SE 22:30:03 30° E 22:33:31 10° NNE
Cosmos-2242 3.8 22:28:27 10° N 22:32:37 39° ENE 22:34:45 24° SE
SAR-Lupe-2 3.9 22:31:07 27° SE 22:32:46 50° ENE 22:36:16 10° N
CZ-4B R/B 3.9 22:30:17 10° N 22:35:19 67° WNW 22:40:27 10° SSW
Cosmos 1758 4.3 22:35:03 10° N 22:38:50 34° ENE 22:40:30 25° ESE
Cosmos 676 Rocket 4.2 22:41:34 20° S 22:45:07 53° ESE 22:50:18 10° NNE
DELTA 2 DEB (DPAF) 4.3 22:45:12 22° S 22:48:00 68° WSW 22:52:29 10° NNW
Cosmos 1766 3.2 22:45:05 10° N 22:49:07 90° ENE 22:51:01 30° S
Cosmos 1140 Rocket 4.4 22:48:57 25° SE 22:50:35 30° E 22:55:07 10° NE
Cosmos 1758 Rocket 3.5 22:49:55 20° S 22:52:54 85° W 22:57:17 10° N
ATLAS 3B R/B 2.9 22:46:03 10° SSW 22:53:44 75° ESE 23:01:13 10° NE
ARGOS 3.8 22:51:45 16° S 22:55:51 49° W 23:01:08 10° NNW
CARTOSAT-1 3.5 22:54:17 30° SSE 22:56:23 89° ENE 23:00:45 10° NNW
Cosmos 2369 Rocket 2.8 22:52:45 10° NW 22:58:11 47° WSW 23:01:40 21° S
USA 234 3.9 23:01:10 23° S 23:04:51 41° SW 23:11:01 10° WNW
Atlas Centaur 2 3.9 23:05:05 10° SW 23:11:27 26° S 23:12:43 25° SSE
Cosmos 1092 Rocket 4.4 23:13:07 29° SE 23:15:59 47° E 23:21:57 10° NNE
Cosmos 407 Rocket 3.8 23:11:18 11° SSW 23:16:26 66° WNW 23:21:39 10° NNE
Cosmos 1470 3.8 23:14:06 10° N 23:17:39 32° ENE 23:18:24 29° E
SL-8 R/B 3.7 23:13:37 10° WNW 23:18:29 80° NNE 23:21:45 21° E
Spot 2 4.3 23:13:53 10° NNE 23:18:40 87° WNW 23:21:29 26° SSW
ISS -2.8 23:16:43 10° WSW 23:19:58 60° NNW 23:23:12 10° ENE
Cosmos 1842 Rocket 3.6 23:16:25 10° N 23:20:47 65° E 23:22:06 42° SE
SL-27 R/B 2.2 23:21:09 66° SE 23:21:20 68° ESE 23:24:41 10° NNE
Cosmos 1805 3.2 23:18:10 10° N 23:22:09 89° ENE 23:23:10 49° S
SL-23 DEB 3.9 23:19:50 10° SW 23:24:58 55° SSE 23:28:21 10° ENE
Nadezhda 4 Rocket 4.0 23:24:06 30° S 23:27:28 75° E 23:33:49 10° NNE
Cosmos 1953 2.6 23:25:46 10° NNW 23:29:43 60° W 23:30:51 41° SSW
COSMOS 2406 3.3 23:27:26 34° S 23:29:46 57° ESE 23:35:22 10° NNE
USA 238 DEB 3.8 23:26:24 23° S 23:30:53 58° ESE 23:37:48 10° NE
Cosmos 2208 Rocket 3.9 23:25:42 10° NNW 23:30:55 84° ENE 23:32:53 39° SSE
USA 238 3.8 23:26:35 23° S 23:30:59 58° ESE 23:37:53 10° NE
Spot 4 4.2 23:30:07 32° SSW 23:32:07 55° W 23:36:50 10° NNW
Cosmos 1340 3.6 23:33:15 33° E 23:33:15 33° E 23:36:42 10° NNE
Lacrosse 5 rocket 4.2 23:31:30 10° NW 23:34:27 19° N 23:37:30 10° NE
COSMOS 2455 4.5 23:29:22 10° WSW 23:34:48 34° NW 23:40:16 10° NNE
Cosmos 1954 Rocket 4.1 23:32:27 22° SSW 23:35:54 76° WNW 23:41:14 10° NNE
CZ-4C R/B 3.5 23:41:43 22° ESE 23:41:43 22° ESE 23:45:58 10° ENE
CZ-4B R/B 3.2 23:43:41 23° E 23:44:16 24° ENE 23:47:18 10° NNE
Terra 3.0 23:43:54 23° SW 23:45:58 33° W 23:50:18 10° NNW
Lacrosse 5 3.9 23:43:03 10° NW 23:47:20 26° NNE 23:51:36 10° ENE
CZ-4C R/B 3.8 23:49:49 36° ENE 23:49:49 36° ENE 23:52:44 10° N
Cosmos 1741 Rocket 3.9 23:52:16 40° S 23:54:13 79° ESE 23:59:34 10° NNE
Cosmos 1544 3.1 23:51:20 10° NNW 23:55:06 69° W 23:55:27 63° SW
